Tracking 27079 objects as of 24-Mar-2023
HD Live streaming from Space Station
objects crossing your sky now

STARLINK-2064

Track STARLINK-2064 now!
10-day predictions
STARLINK-2064 is classified as:


NORAD ID: 47671
Int'l Code: 2021-012BD
Perigee: 553.4 km
Apogee: 555.3 km
Inclination: 53.1 °
Period: 95.6 minutes
Semi major axis: 6925 km
RCS: Unknown
Launch date: February 16, 2021
Source: United States (US)
Launch site: AIR FORCE EASTERN TEST RANGE (AFETR)
Your satellite tracking list
Your tracking list is empty




NASA's NSSDC Master Catalog

Two Line Element Set (TLE):
1 47671U 21012BD  23082.66017544  .00001897  00000-0  14621-3 0  9991
2 47671  53.0531 229.0369 0001378  89.2754 270.8392 15.06392048116668
Source of the keplerian elements: AFSPC